Regional Weather Roundup
Issued by NWS

Home | Current Version | Previous Version | Graphics & Text | Print | Product List | Glossary On
Versions: 1 2 3 4 5 6 7 8 9 10 11 12 13 14 15 16 17 18 19 20 21 22 23 24 25 26 27 28 29 30 31 32 33 34 35 36 37 38 39 40 41 42 43 44 45 46 47 48 49 50
844
ASUS44 KJAN 292203
RWRMS

MISSISSIPPI HOURLY WEATHER ROUNDUP
NATIONAL WEATHER SERVICE JACKSON MS
400 PM CST THU JAN 29 2015

NOTE: "FAIR: INDICATES FEW OR NO CLOUDS BELOW 12,000 FEET WITH NO
SIGNIFICANT WEATHER AND/OR OBSTRUCTIONS TO VISIBILITY.

MSZ001>002-007>008-010>013-018>021-025>028-034>036-292300-
NORTHWEST MISSISSIPPI

CITY           SKY/WX    TMP DP  RH WIND       PRES   REMARKS
CLARKSDALE     FAIR      61  45  55 NW10      30.18R
CLEVELAND      FAIR      64  48  55 NW13      30.16R
GREENWOOD      PTSUNNY   68  49  50 NW5       30.14R
GREENVILLE     MOSUNNY   68  47  46 N16       30.14R
GRENADA        MOCLDY    66  46  48 NW15      30.14R
OLIVE BRANCH   CLOUDY    55  41  58 NW21G26   30.19R
OXFORD         FAIR      61  43  51 NW15      30.15R
TUNICA         PTCLDY    55  41  58 N28       30.21R
$$

MSZ003>006-009-014>017-022>024-029>033-037>039-292300-
NORTHEAST MISSISSIPPI

CITY           SKY/WX    TMP DP  RH WIND       PRES   REMARKS
COLUMBUS AFB   MOSUNNY   70  47  43 W8        30.09R
CORINTH        CLOUDY    63  43  48 NW15      30.11R
GOLDN TRIANGLE MOSUNNY   70  48  46 W9        30.09R
STARKVILLE     FAIR      70  46  43 W10G16    30.10R
TUPELO         MOSUNNY   64  47  53 NW8       30.12R
$$

MSZ040-058-292300-
CENTRAL MISSISSIPPI

CITY           SKY/WX    TMP DP  RH WIND       PRES   REMARKS
JACKSON INTL   PTSUNNY   72  48  42 W10       30.13R
JACKSON HAWKNS MOSUNNY   71  49  45 W17       30.13R
MERIDIAN KEY   MOSUNNY   73  49  42 SW10G22   30.10S
MERIDIAN NAS   PTSUNNY   74  50  42 W7        30.10R
RAYMOND        FAIR      72  66  83 W12       30.13S
VICKSBURG      MOSUNNY   73  51  46 W8        30.14R
$$

MSZ059>079-292300-
SOUTH MISSISSIPPI

CITY           SKY/WX    TMP DP  RH WIND       PRES   REMARKS
BROOKHAVEN     FAIR      75  45  33 SW12      30.16R
HATTIESBURG    MOSUNNY   76  50  40 W12       30.13F
MCCOMB         SUNNY     75  49  39 SW12      30.15R
NATCHEZ        MOSUNNY   72  54  53 SW13      30.16S
PINE BELT      MOSUNNY   73  48  40 W7        30.15F
$$

MSZ080>082-292300-
COASTAL MISSISSIPPI

CITY           SKY/WX    TMP DP  RH WIND       PRES   REMARKS
BAY ST LOUIS   MOSUNNY   73  52  46 W10       30.17F
BILOXI         SUNNY     66  55  69 S12       30.18F
PASCAGOULA     SUNNY     68  54  60 S9        30.19F
GULFPORT       SUNNY     66  54  65 S6        30.18F
$$



USA.gov is the U.S. government's official web portal to all federal, state and local government web resources and services.